Regional Weather Roundup
Issued by NWS Lake Charles, LA

Home | Current Version | Previous Version | Text Only | Print | Product List | Glossary On
Versions: 1 2 3 4 5 6 7 8 9 10 11 12 13 14 15 16 17 18 19 20 21 22 23 24 25 26 27 28 29 30 31 32 33 34 35 36 37 38 39 40 41 42 43 44 45 46 47 48 49 50
000
ASUS44 KLCH 221410
RWRLCH
RWRLCH
REGIONAL WEATHER ROUNDUP
NATIONAL WEATHER SERVICE LAKE CHARLES LA
900 AM CDT FRI AUG 22 2014

Note: "fair" indicates few or no clouds below 12,000 feet with no
significant weather and/or obstructions to visibility.


ACROSS SOUTHEAST TEXAS

CITY           SKY/WX    TMP DP  RH WIND       PRES   REMARKS
BEAUMONT       MOSUNNY   84  77  79 CALM      30.09R
BEAUMONT CITY    N/A     82  77  83 SW3       30.10S
ORANGE         SUNNY     84  78  83 CALM      30.11R
JASPER         SUNNY     75  73  95 CALM      30.13R
$$

ACROSS CENTRAL LOUISIANA

CITY           SKY/WX    TMP DP  RH WIND       PRES   REMARKS
LEESVILLE      MOSUNNY   78  76  93 CALM      30.12R
FULLERTON      NOT AVBL
ALEXANDRIA INT PTSUNNY   78  75  90 CALM      30.10R
ESLER FIELD    MOSUNNY   81  75  82 CALM      30.12R
DERIDDER         N/A     75  74  95 CALM      30.13R FOG
OAKDALE        CLOUDY    80  77  90 CALM      30.11R
OPELOUSAS        N/A    N/A N/A N/A CALM      30.11S
$$

ACROSS SOUTHWEST AND SOUTH CENTRAL LOUISIANA

CITY           SKY/WX    TMP DP  RH WIND       PRES   REMARKS
SULPHUR        SUNNY     85  80  85 CALM      30.11R
LAKE CHARLES   SUNNY     84  78  82 CALM      30.10R
CHENNAULT INT  MOSUNNY   79  77  94 CALM      30.11R
CAMERON PHI    MOSUNNY   86  77  74 SW7       30.10R
DEQUINCY         N/A     80  76  90 CALM      30.11R
JENNINGS         N/A     83  78  85 CALM      30.10S
LAFAYETTE      SUNNY     81  77  88 CALM      30.11S
NEW IBERIA     SUNNY     84  78  82 CALM      30.11S
ABBEVILLE        N/A     82  78  90 CALM      30.11S
PATTERSON      SUNNY     84  79  84 E3        30.14S
SALT POINT       N/A     88  80  77 CALM      30.10S HX 104
$$

SELECTED SITES ACROSS THE REGION

CITY           SKY/WX    TMP DP  RH WIND       PRES   REMARKS
HOUSTON BUSH   MOSUNNY   83  77  82 SE5       30.09R
HOUSTON HOBBY  MOSUNNY   83  77  82 CALM      30.08R
GALVESTON      MOSUNNY   87  77  72 S7        30.09R
COLLEGE STAT   MOSUNNY   81  77  88 S9        30.07S
CONROE         PTSUNNY   80  77  90 CALM      30.10S
HUNTSVILLE     CLOUDY    79  76  90 S8        30.10R
LUFKIN         PTSUNNY   82  77  84 S5        30.10S
SHREVEPORT     CLOUDY    80  74  81 SW14      30.09S
MONROE         MOSUNNY   78  75  90 SW7       30.12S
NATCHEZ MS     SUNNY     81  75  83 SW5       30.14R
BATON ROUGE    PTSUNNY   80  76  87 NE3       30.12S
N.O. INTL ARPT MOSUNNY   84  75  74 W3        30.12R
SLIDELL        SUNNY     83  72  69 NW6       30.11S
$$

MARINE REPORTS

STATION/POSITION TIME  TEMP    WIND        PRES    VSBY  WAVE
                       AIR SEA DIR/SP/G                  HT/PER
                 (UTC) (F)     (DEG/KT/KT) (MB)    (MI)  (FT/S)
BUOY 30 S HIGH I NOT AVBL
SEA RIM ST PARK  1400   85     210/  6/  7 1019.3R
PORT ARTHUR      1400      88  210/  6/  7 1018.8F
SABINE PASS N    1400   86 87  220/  5/ 10 1018.9F
TEXAS POINT      1400   86 87  210/  8/ 10 1019.0S
CALCASIEU PASS   1400   85 86  250/  6/  7 1020.1S
LK CHARLES BEACH 1400   83 87              1019.9S
MARSH ISLAND     1300   89     280/  1/  5   N/A
FRESH WATER LOCK 1400   86 87   40/  2/  3 1019.3S
AMERADA PASS     1400   84 85   90/  2/  3 1019.6R
$$


USA.gov is the U.S. government's official web portal to all federal, state and local government web resources and services.